[[{"header":{"parameterUnit":"m.s-1","parameterCategory":2,"la1":30.2991,"la2":30.254,"lo1":-89.0895,"lo2":-89.0444,"dy":0.0017,"dx":0.0017,"nx":28,"ny":28,"refTime":"2024-08-16T09:00:00:Z","depth":"0","parameterNumber":2,"parameterNumberName":"U-component_of_CURRENTS"},"data":[0,0,0,0,0,0,0,0,0,0,0,0,0,0,0,0,0,0,0,0,0,0,0,0,0,0,0,0,0,0,0,0,0,0,0,0,0,0,0,0,0,0,0,0,0,0,0,0,0,0,0,0,0,0,0,0,0,0,-0.177,-0.1771,0,-0.1721,-0.1719,-0.1717,-0.1704,-0.1706,-0.1708,-0.171,-0.1471,-0.1463,-0.1455,0,0,0,0,0,0,0,0,0,0,0,0,0,-0.1498,-0.1504,-0.177,-0.1771,-0.1772,-0.1721,-0.1719,-0.1716,-0.1704,-0.1706,-0.1709,-0.1711,-0.1474,-0.1464,-0.1455,0,0,0,0,0,0,0,0,0,0,0,0,0,-0.1534,-0.1506,-0.177,-0.1772,-0.1773,-0.1721,-0.1719,-0.1716,-0.1704,-0.1706,-0.1709,-0.1712,-0.1477,-0.1465,-0.1453,-0.1324,0,0,-0.1416,-0.1411,0,0,0,0,0,0,0,0,-0.1533,-0.1543,-0.1771,-0.1772,-0.1773,-0.1736,-0.1536,-0.1581,-0.1703,-0.1712,-0.171,-0.1713,-0.1551,-0.1533,-0.1497,-0.1313,-0.1302,-0.1415,-0.1408,-0.1403,-0.1399,0,0,0,0,0,0,0,-0.1531,-0.1543,-0.1734,-0.1772,-0.1773,-0.1654,-0.1664,-0.1542,-0.16,-0.1712,-0.1715,-0.1735,-0.1548,-0.1508,-0.1491,-0.1299,-0.1416,-0.1405,-0.1397,-0.1393,-0.1148,-0.1148,0,0,0,0,0,0,-0.1587,-0.1543,-0.1736,-0.1734,-0.1676,-0.166,-0.1669,-0.1731,-0.1606,-0.1596,-0.1733,-0.1735,-0.1528,-0.1505,-0.1482,-0.1469,-0.1403,-0.1392,-0.1385,-0.1147,-0.1148,-0.1149,0,0,0,0,0,0,-0.1582,-0.1606,-0.1738,-0.1646,-0.1658,-0.1666,-0.1732,-0.173,-0.172,-0.1627,-0.161,-0.1733,-0.1529,-0.1499,-0.1397,-0.1454,-0.1386,-0.1375,-0.1146,-0.1147,-0.1148,-0.1346,0,0,0,0,0,0,-0.1575,-0.1605,-0.164,-0.1653,-0.1666,-0.173,-0.1732,-0.1727,-0.1735,-0.1737,-0.162,-0.16,-0.1529,-0.1416,-0.1385,-0.1436,-0.1366,-0.1145,-0.1147,-0.1148,-0.1339,-0.1354,-0.1367,0,0,0,0,0,-0.1566,-0.1622,-0.1643,-0.1665,-0.1725,-0.1732,-0.1724,-0.1724,-0.1733,-0.1723,-0.1649,-0.1605,-0.1406,-0.1404,-0.1369,-0.1418,-0.1144,-0.1146,-0.1148,-0.1332,-0.1351,-0.1367,0,0,0,0,0,0,-0.1495,-0.1627,-0.1651,-0.1738,-0.1745,-0.1737,-0.1737,-0.1733,-0.1665,-0.1668,-0.1573,-0.1545,-0.1485,-0.1404,-0.1407,-0.1353,-0.1282,-0.1277,-0.1435,-0.1451,-0.1465,-0.1482,-0.1356,0,0,0,0,0,-0.1507,-0.1595,-0.166,-0.1713,-0.174,-0.1734,-0.1731,-0.1737,-0.1699,-0.1676,-0.1593,-0.1515,-0.1454,-0.1418,-0.1324,-0.1263,-0.123,-0.1283,-0.1297,-0.131,-0.1299,-0.1366,-0.1388,-0.1154,-0.1154,-0.1154,0,0,-0.1481,-0.1571,-0.1609,-0.1703,-0.1713,-0.1735,-0.1736,-0.1755,-0.1753,-0.165,-0.1593,-0.1534,-0.1441,-0.1398,-0.1369,-0.1347,-0.1347,-0.1312,-0.1324,-0.1306,-0.1371,-0.1394,-0.1415,-0.1155,-0.1155,-0.1155,0,0,-0.1484,-0.1571,-0.1648,-0.1669,-0.173,-0.1732,-0.1752,-0.1753,-0.1745,-0.1681,-0.1641,-0.1632,-0.1473,-0.1477,-0.1448,-0.1473,-0.1408,-0.144,-0.1538,-0.1606,-0.1627,-0.1645,-0.1597,-0.161,-0.1466,-0.1467,-0.1467,0,-0.1447,-0.157,-0.1645,-0.1707,-0.1732,-0.1745,-0.1782,-0.1761,-0.1713,-0.1722,-0.1684,-0.1595,-0.153,-0.1556,-0.1574,-0.1515,-0.1486,-0.1493,-0.1632,-0.1649,-0.1665,-0.1611,-0.1623,-0.1476,-0.1475,-0.1474,-0.1473,0,-0.1506,-0.1583,-0.1621,-0.1729,-0.1746,-0.1776,-0.18,-0.1795,-0.1788,-0.1782,-0.1787,-0.1719,-0.1686,-0.1692,-0.1624,-0.1716,-0.1633,-0.1639,-0.1607,-0.1702,-0.1636,-0.1645,-0.149,-0.1487,-0.1484,-0.1481,0,0,-0.1478,-0.1642,-0.165,-0.17,-0.1771,-0.1792,-0.1816,-0.1861,-0.1896,-0.1865,-0.1915,-0.1873,-0.1871,-0.1837,-0.1807,-0.1873,-0.1955,-0.1799,-0.1798,-0.1778,-0.2015,-0.1888,-0.1883,-0.1997,-0.2001,-0.2003,-0.1914,0,-0.1496,-0.1636,-0.1701,-0.1757,-0.1824,-0.1852,-0.1868,-0.1901,-0.1915,-0.1944,-0.1978,-0.1972,-0.1918,-0.1923,-0.1987,-0.1951,-0.1989,-0.1971,-0.1897,-0.1892,-0.1797,-0.1896,-0.1778,-0.1684,-0.1921,-0.1923,-0.1924,0,-0.1542,-0.1635,-0.1736,-0.1828,-0.1857,-0.1867,-0.1944,-0.1954,-0.202,-0.2034,-0.209,-0.208,-0.2142,-0.2095,-0.2123,-0.2107,-0.2057,-0.2044,-0.2041,-0.1858,-0.1785,-0.163,-0.169,-0.1673,-0.1936,-0.1935,-0.1934,0,-0.1532,-0.1651,-0.1743,-0.1769,-0.1866,-0.1896,-0.1922,-0.1988,-0.2017,-0.2093,-0.2128,-0.2195,-0.2196,-0.2222,-0.2141,-0.2145,-0.2151,-0.2166,-0.2,-0.1985,-0.1833,-0.1801,-0.1894,-0.2202,-0.2202,-0.2202,-0.2203,0,-0.1562,-0.1621,-0.1739,-0.1778,-0.1837,-0.1895,-0.195,-0.1989,-0.2062,-0.2097,-0.2158,-0.2184,-0.2232,-0.2225,-0.2181,-0.2082,-0.2179,-0.2012,-0.1985,-0.1888,-0.1863,-0.1794,-0.1819,-0.2199,-0.22,-0.22,-0.2201,0,-0.1561,-0.1645,-0.1731,-0.1827,-0.1844,-0.1878,-0.1944,-0.1984,-0.2045,-0.2097,-0.212,-0.2179,-0.2149,-0.2148,-0.2145,-0.2088,-0.2,-0.1978,-0.1792,-0.1747,-0.1597,-0.1636,-0.1656,-0.1614,-0.1814,-0.1811,-0.1809,0,-0.1593,-0.1649,-0.1746,-0.1767,-0.1804,-0.1856,-0.1886,-0.196,-0.1992,-0.2066,-0.2079,-0.2087,-0.204,-0.197,-0.1895,-0.1799,-0.1836,-0.1639,-0.1663,-0.1577,-0.1603,-0.1649,-0.1617,-0.151,-0.1505,-0.1501,-0.1498,0,-0.1618,-0.165,-0.1708,-0.175,-0.1777,-0.182,-0.1857,-0.1889,-0.1953,-0.1983,-0.1973,-0.1951,-0.185,-0.1703,-0.1582,-0.1528,-0.1609,-0.1551,-0.1565,-0.1455,-0.1413,-0.136,-0.1504,-0.1462,-0.1465,-0.1468,-0.147,-0.1471,-0.1606,-0.163,-0.168,-0.1705,-0.1734,-0.1743,-0.1727,-0.1762,-0.1776,-0.1733,-0.1796,-0.1684,-0.1573,-0.1385,-0.132,-0.1189,-0.1308,-0.1169,-0.1236,-0.1298,-0.1246,-0.1248,-0.1128,-0.113,-0.1131,-0.1132,-0.1133,0,-0.1563,-0.1586,-0.1621,-0.1628,-0.1617,-0.1654,-0.1666,-0.1604,-0.1545,-0.1514,-0.1443,-0.1336,-0.1168,-0.1097,-0.0967,-0.0908,-0.092,-0.0913,-0.0989,-0.0983,-0.1054,-0.1028,-0.0759,-0.0759,-0.0759,-0.0759,-0.0759,-0.0759,-0.1537,-0.1537,-0.1547,-0.149,-0.1487,-0.1406,-0.138,-0.1284,-0.1222,-0.1072,-0.0995,-0.0935,-0.0949,-0.0997,-0.0881,-0.0821,-0.0852,-0.0804,-0.0882,-0.0961,-0.0991,-0.1021,-0.1005,-0.0735,-0.0735,-0.0744,-0.0745,-0.0745]},{"header":{"parameterUnit":"m.s-1","parameterCategory":2,"la1":30.2991,"la2":30.254,"lo1":-89.0895,"lo2":-89.0444,"dy":0.0017,"dx":0.0017,"nx":28,"ny":28,"refTime":"2024-08-16T09:00:00:Z","depth":"0","parameterNumber":3,"parameterNumberName":"V-component_of_CURRENTS"},"data":[0,0,0,0,0,0,0,0,0,0,0,0,0,0,0,0,0,0,0,0,0,0,0,0,0,0,0,0,0,0,0,0,0,0,0,0,0,0,0,0,0,0,0,0,0,0,0,0,0,0,0,0,0,0,0,0,0,0,-0.0039,-0.0036,0,0.0219,0.0222,0.0225,0.0313,0.0312,0.0311,0.0311,0.0446,0.045,0.0455,0,0,0,0,0,0,0,0,0,0,0,0,0,-0.0267,-0.0264,-0.004,-0.0036,-0.0033,0.0219,0.0222,0.0226,0.0313,0.0312,0.0311,0.031,0.0445,0.045,0.0455,0,0,0,0,0,0,0,0,0,0,0,0,0,-0.0106,-0.0264,-0.004,0.0042,0.0052,0.0218,0.0223,0.0227,0.0314,0.0312,0.0311,0.031,0.0443,0.0449,0.0456,0.0525,0,0,0.0476,0.0479,0,0,0,0,0,0,0,0,-0.0115,-0.0098,0.0027,0.0037,0.0049,0.0234,0.0192,0.0321,0.0314,0.0213,0.0311,0.0309,0.0366,0.0379,0.043,0.0531,0.0537,0.0477,0.0481,0.0484,0.0486,0,0,0,0,0,0,0,-0.0127,-0.0107,0.0062,0.0031,0.0044,0.0132,0.0151,0.0218,0.029,0.0222,0.0229,0.0261,0.037,0.0424,0.0434,0.0539,0.0477,0.0483,0.0487,0.0489,0.0619,0.0619,0,0,0,0,0,0,-0.0164,-0.0119,0.0053,0.007,-0.0037,0.0136,0.0158,0.0175,0.0293,0.0311,0.0261,0.0264,0.0413,0.0426,0.0438,0.045,0.0484,0.049,0.0494,0.062,0.0619,0.0619,0,0,0,0,0,0,-0.017,-0.0152,0.0043,-0.0017,0.0014,0.014,0.0159,0.0181,0.0232,0.0325,0.034,0.029,0.0412,0.0429,0.0495,0.0458,0.0493,0.0499,0.0621,0.062,0.0619,0.0522,0,0,0,0,0,0,-0.0178,-0.0156,-0.0165,-0.002,0.0016,0.0139,0.0162,0.0187,0.0255,0.026,0.0355,0.0366,0.0412,0.0484,0.0501,0.0468,0.0504,0.0621,0.062,0.0619,0.0526,0.0518,0.0511,0,0,0,0,0,-0.0187,-0.0186,-0.0167,-0.0146,0.0002,0.014,0.0167,0.0252,0.0257,0.029,0.0344,0.0363,0.0487,0.0491,0.0511,0.0478,0.0622,0.0621,0.0619,0.0529,0.052,0.0511,0,0,0,0,0,0,-0.0292,-0.0172,-0.0149,-0.0115,-0.0001,0.0155,0.0194,0.0251,0.0326,0.0319,0.0386,0.0404,0.0436,0.0483,0.0484,0.0511,0.0546,0.0549,0.0471,0.0463,0.0455,0.0411,0.051,0,0,0,0,0,-0.0321,-0.0293,-0.0153,-0.0129,-0.0074,0.0056,0.0117,0.0182,0.0276,0.0309,0.0375,0.0423,0.0452,0.0477,0.0527,0.0567,0.0597,0.0549,0.0542,0.0535,0.0512,0.0556,0.055,0.0615,0.0615,0.0615,0,0,-0.0358,-0.0288,-0.0275,-0.015,-0.0059,0.0018,0.0089,0.0187,0.0219,0.0309,0.0361,0.0412,0.0458,0.0488,0.0503,0.052,0.0532,0.0534,0.0527,0.0508,0.0554,0.0548,0.0543,0.0614,0.0614,0.0614,0,0,-0.0381,-0.035,-0.0312,-0.0221,-0.0084,-0.0012,0.0011,0.0169,0.0201,0.0281,0.0315,0.0349,0.0441,0.045,0.0462,0.0449,0.0493,0.0458,0.0387,0.043,0.0424,0.042,0.044,0.0438,0.0452,0.0452,0.0451,0,-0.0434,-0.0368,-0.0278,-0.0201,-0.0154,-0.0036,0.0015,0.0079,0.0227,0.0229,0.0278,0.0362,0.0409,0.0393,0.038,0.0427,0.046,0.0414,0.0418,0.0415,0.0412,0.0434,0.0433,0.0447,0.0447,0.0448,0.0448,0,-0.0401,-0.0351,-0.0316,-0.0214,-0.0157,-0.0085,0.0007,0.0044,0.0088,0.015,0.0175,0.0262,0.0298,0.0311,0.0343,0.0325,0.0356,0.0405,0.0436,0.04,0.0425,0.0426,0.044,0.0442,0.0443,0.0444,0,0,-0.0515,-0.0334,-0.0325,-0.0291,-0.0163,-0.0117,-0.0102,-0.0053,-0.0068,0.0048,0.0045,0.0092,0.0141,0.0157,0.0205,0.024,0.0248,0.0305,0.031,0.0313,0.0331,0.0324,0.0325,0.0309,0.0309,0.0309,0.0352,0,-0.0518,-0.0407,-0.0331,-0.0284,-0.0226,-0.017,-0.0177,-0.014,-0.0095,-0.0062,-0.0008,0.0026,0.0079,0.0099,0.0136,0.0239,0.0249,0.0231,0.0374,0.0377,0.0367,0.0325,0.0381,0.0422,0.0353,0.0354,0.0354,0,-0.051,-0.0441,-0.0372,-0.0332,-0.0313,-0.0293,-0.0326,-0.0303,-0.0261,-0.0229,-0.0187,-0.011,-0.0065,0.0009,0.0122,0.0116,0.0189,0.027,0.0275,0.0298,0.0372,0.0451,0.0427,0.0583,0.0356,0.0356,0.0356,0,-0.0613,-0.05,-0.0468,-0.0432,-0.0349,-0.0374,-0.0373,-0.0355,-0.0367,-0.0318,-0.0301,-0.0223,-0.0166,-0.0053,0.0086,0.0119,0.0227,0.0303,0.0347,0.0348,0.0435,0.0442,0.0567,0.0347,0.0347,0.0347,0.0347,0,-0.0644,-0.0624,-0.0509,-0.0477,-0.0518,-0.0452,-0.0505,-0.0497,-0.0472,-0.0491,-0.0385,-0.0376,-0.0173,-0.008,0.0051,0.0186,0.0192,0.0309,0.0352,0.0401,0.0405,0.0577,0.0643,0.0348,0.0348,0.0348,0.0347,0,-0.0723,-0.0633,-0.0594,-0.0531,-0.0534,-0.0564,-0.0578,-0.061,-0.0581,-0.059,-0.0577,-0.0474,-0.0345,-0.0172,0.0019,0.0131,0.0363,0.0298,0.0321,0.0365,0.0579,0.0636,0.0757,0.0851,0.0387,0.0387,0.0387,0,-0.0737,-0.0705,-0.0645,-0.0651,-0.0615,-0.0646,-0.0677,-0.0667,-0.0687,-0.0666,-0.0673,-0.0562,-0.0486,-0.0222,0.0009,0.0225,0.0351,0.0374,0.0438,0.0569,0.0667,0.0705,0.078,0.0522,0.0523,0.0524,0.0524,0,-0.0771,-0.0739,-0.0705,-0.071,-0.073,-0.0772,-0.08,-0.084,-0.0832,-0.0844,-0.0834,-0.0766,-0.0495,-0.0214,0.0062,0.0204,0.0509,0.0397,0.0555,0.0776,0.0808,0.0928,0.0497,0.0532,0.0532,0.0531,0.0531,0.053,-0.0804,-0.0801,-0.0751,-0.0775,-0.0808,-0.087,-0.091,-0.0947,-0.1,-0.0995,-0.094,-0.0777,-0.0353,0.007,0.0203,0.0583,0.0569,0.0743,0.0797,0.082,0.0917,0.0466,0.0536,0.0535,0.0534,0.0534,0.0533,0,-0.0816,-0.0811,-0.083,-0.0842,-0.0895,-0.09,-0.0969,-0.0989,-0.1047,-0.1019,-0.0978,-0.0461,-0.0089,0.0315,0.0809,0.0998,0.1067,0.1103,0.1215,0.1273,0.091,0.0924,0.1055,0.1055,0.1055,0.1055,0.1055,0.1055,-0.0817,-0.0822,-0.0827,-0.0898,-0.0926,-0.098,-0.1016,-0.1038,-0.1,-0.0835,-0.0551,-0.0305,0.0368,0.0955,0.1373,0.1408,0.1604,0.1566,0.1653,0.1454,0.1426,0.14,0.1431,0.1667,0.1668,0.2041,0.2045,0.2047]}],[{"header":{"parameterUnit":"m.s-1","parameterCategory":2,"la1":30.2991,"la2":30.254,"lo1":-89.0895,"lo2":-89.0444,"dy":0.0017,"dx":0.0017,"nx":28,"ny":28,"refTime":"2024-08-16T09:00:00:Z","depth":"2","parameterNumber":2,"parameterNumberName":"U-component_of_CURRENTS"},"data":[0,0,0,0,0,0,0,0,0,0,0,0,0,0,0,0,0,0,0,0,0,0,0,0,0,0,0,0,0,0,0,0,0,0,0,0,0,0,0,0,0,0,0,0,0,0,0,0,0,0,0,0,0,0,0,0,0,0,-0.1908,-0.1909,0,-0.2019,-0.2021,-0.2022,-0.2085,-0.2085,-0.2085,-0.2085,-0.232,-0.2326,-0.2333,0,0,0,0,0,0,0,0,0,0,0,0,0,-0.1802,-0.1804,-0.1908,-0.1909,-0.191,-0.2019,-0.2021,-0.2023,-0.2085,-0.2085,-0.2085,-0.2085,-0.2318,-0.2326,-0.2333,0,0,0,0,0,0,0,0,0,0,0,0,0,-0.1876,-0.1804,-0.1907,-0.1953,-0.1958,-0.2019,-0.2021,-0.2023,-0.2085,-0.2085,-0.2085,-0.2085,-0.2316,-0.2325,-0.2334,-0.2392,0,0,-0.2363,-0.2367,0,0,0,0,0,0,0,0,-0.1872,-0.1881,-0.1945,-0.195,-0.1955,-0.2037,-0.207,-0.2152,-0.2085,-0.2039,-0.2085,-0.2085,-0.2235,-0.2251,-0.2274,-0.2403,-0.2413,-0.2364,-0.2369,-0.2373,-0.2376,0,0,0,0,0,0,0,-0.1867,-0.1876,-0.1954,-0.1946,-0.1953,-0.1986,-0.1996,-0.2086,-0.214,-0.2043,-0.2048,-0.2056,-0.2239,-0.2264,-0.228,-0.2417,-0.2363,-0.2372,-0.2378,-0.2381,-0.2656,-0.2658,0,0,0,0,0,0,-0.1846,-0.1871,-0.1951,-0.1957,-0.191,-0.1987,-0.1999,-0.2012,-0.2136,-0.2154,-0.2056,-0.2059,-0.2248,-0.2269,-0.2289,-0.2436,-0.2373,-0.2382,-0.2387,-0.2654,-0.2656,-0.2658,0,0,0,0,0,0,-0.1843,-0.1852,-0.1946,-0.1915,-0.1929,-0.1989,-0.2003,-0.2014,-0.2072,-0.2145,-0.2165,-0.2105,-0.2249,-0.2276,-0.2423,-0.2442,-0.2386,-0.2395,-0.2652,-0.2655,-0.2657,-0.2684,0,0,0,0,0,0,-0.184,-0.1851,-0.1884,-0.1913,-0.193,-0.1991,-0.2004,-0.2017,-0.2074,-0.208,-0.2193,-0.2212,-0.2251,-0.2409,-0.2433,-0.2454,-0.2402,-0.265,-0.2654,-0.2656,-0.2681,-0.2688,-0.2693,0,0,0,0,0,-0.1836,-0.1877,-0.1885,-0.1896,-0.1963,-0.1991,-0.2004,-0.2047,-0.2077,-0.2101,-0.2208,-0.2211,-0.2443,-0.2421,-0.2447,-0.2471,-0.2649,-0.2653,-0.2656,-0.2679,-0.2686,-0.2693,0,0,0,0,0,0,-0.185,-0.1888,-0.1897,-0.1948,-0.1968,-0.2001,-0.2031,-0.2069,-0.217,-0.2198,-0.2271,-0.2299,-0.2419,-0.2454,-0.2427,-0.2556,-0.2531,-0.254,-0.2539,-0.2547,-0.2552,-0.2524,-0.241,0,0,0,0,0,-0.1865,-0.1905,-0.1926,-0.1966,-0.1969,-0.2008,-0.2038,-0.2071,-0.2146,-0.2189,-0.2279,-0.237,-0.2449,-0.2509,-0.2582,-0.2686,-0.2634,-0.2705,-0.2711,-0.2716,-0.271,-0.2655,-0.2654,-0.2671,-0.267,-0.267,0,0,-0.1877,-0.1906,-0.1928,-0.1972,-0.1985,-0.203,-0.2027,-0.2074,-0.2154,-0.2204,-0.236,-0.2407,-0.2483,-0.2585,-0.2638,-0.2625,-0.268,-0.272,-0.2724,-0.2716,-0.2659,-0.2656,-0.2654,-0.2673,-0.2673,-0.2672,0,0,-0.1926,-0.1937,-0.1992,-0.2016,-0.2056,-0.2068,-0.2088,-0.2148,-0.2209,-0.2356,-0.2392,-0.2461,-0.2623,-0.2649,-0.2689,-0.2776,-0.2711,-0.2789,-0.2807,-0.2754,-0.2751,-0.2748,-0.2653,-0.2641,-0.2793,-0.2793,-0.2793,0,-0.1937,-0.2003,-0.2009,-0.207,-0.2082,-0.2089,-0.2134,-0.2211,-0.2335,-0.2391,-0.2417,-0.2586,-0.2646,-0.2726,-0.2747,-0.2786,-0.2727,-0.2775,-0.2757,-0.2753,-0.2749,-0.2652,-0.2639,-0.2795,-0.2795,-0.2794,-0.2794,0,-0.2037,-0.2084,-0.21,-0.2169,-0.2195,-0.2217,-0.2283,-0.2354,-0.2422,-0.2501,-0.2613,-0.2676,-0.2747,-0.2772,-0.2803,-0.2802,-0.2756,-0.2764,-0.2728,-0.2748,-0.2646,-0.2631,-0.2797,-0.2797,-0.2796,-0.2796,0,0,-0.2043,-0.2143,-0.2157,-0.2171,-0.2233,-0.2246,-0.2365,-0.2438,-0.2488,-0.2633,-0.2678,-0.2818,-0.2804,-0.2842,-0.2844,-0.2814,-0.273,-0.2778,-0.2774,-0.2663,-0.2568,-0.2482,-0.2456,-0.2725,-0.2724,-0.2722,-0.2496,0,-0.2091,-0.2204,-0.2246,-0.2308,-0.2326,-0.2349,-0.2429,-0.2525,-0.2591,-0.265,-0.2727,-0.279,-0.2847,-0.2831,-0.282,-0.2746,-0.2697,-0.2788,-0.2584,-0.2577,-0.2482,-0.244,-0.2305,-0.2089,-0.2481,-0.2479,-0.2477,0,-0.2164,-0.222,-0.2299,-0.2317,-0.2321,-0.2388,-0.2415,-0.2496,-0.2599,-0.2643,-0.2713,-0.2749,-0.2761,-0.277,-0.2683,-0.2733,-0.2653,-0.2599,-0.2589,-0.2489,-0.2464,-0.2141,-0.2046,-0.2452,-0.2454,-0.2456,-0.2457,0,-0.2135,-0.2226,-0.227,-0.2292,-0.2352,-0.24,-0.2439,-0.2531,-0.2549,-0.2632,-0.2601,-0.2671,-0.2623,-0.2598,-0.2543,-0.2587,-0.2389,-0.2429,-0.2279,-0.227,-0.2105,-0.2085,-0.2336,-0.2336,-0.2336,-0.2337,-0.2338,0,-0.2139,-0.2163,-0.2276,-0.2302,-0.2334,-0.2396,-0.2416,-0.2477,-0.2497,-0.2477,-0.2583,-0.2528,-0.257,-0.2492,-0.2475,-0.2316,-0.2337,-0.2251,-0.2204,-0.2111,-0.2095,-0.2389,-0.2398,-0.2328,-0.233,-0.2332,-0.2333,0,-0.2095,-0.2169,-0.2182,-0.2273,-0.2326,-0.2349,-0.2398,-0.2374,-0.2423,-0.2365,-0.2377,-0.2378,-0.229,-0.2295,-0.2189,-0.2167,-0.2072,-0.2011,-0.1884,-0.1829,-0.1997,-0.2011,-0.1799,-0.1794,-0.179,-0.1787,-0.1784,0,-0.2097,-0.2113,-0.2169,-0.2175,-0.223,-0.2291,-0.2302,-0.2362,-0.2305,-0.2268,-0.219,-0.2132,-0.2064,-0.1894,-0.1846,-0.1751,-0.1888,-0.1571,-0.1658,-0.1965,-0.1941,-0.1962,-0.1981,-0.1428,-0.1423,-0.1418,-0.1414,0,-0.2034,-0.2029,-0.2027,-0.2093,-0.2116,-0.2096,-0.213,-0.207,-0.2072,-0.2021,-0.1924,-0.1894,-0.1744,-0.1601,-0.1493,-0.1451,-0.1596,-0.1473,-0.1779,-0.1614,-0.1604,-0.1587,-0.1618,-0.1373,-0.1378,-0.1381,-0.1383,-0.1384,-0.194,-0.1914,-0.1924,-0.1955,-0.1966,-0.1906,-0.1823,-0.1812,-0.173,-0.1623,-0.1662,-0.156,-0.1528,-0.1297,-0.1202,-0.1131,-0.1263,-0.1242,-0.126,-0.1282,-0.1309,-0.1296,-0.1008,-0.1009,-0.1011,-0.1013,-0.1014,0,-0.1803,-0.1794,-0.1812,-0.1785,-0.1691,-0.1787,-0.1679,-0.1556,-0.1427,-0.1409,-0.1351,-0.1175,-0.1056,-0.1038,-0.085,-0.0806,-0.0839,-0.0787,-0.085,-0.089,-0.0925,-0.094,-0.0537,-0.0535,-0.0534,-0.0533,0,0,-0.1728,-0.1665,-0.1696,-0.1544,-0.1516,-0.1358,-0.1251,-0.1163,-0.11,-0.1013,-0.0972,-0.1035,-0.1021,-0.0796,-0.0724,-0.0603,-0.0751,-0.0566,-0.0948,-0.1065,-0.1099,-0.1181,-0.1245,0,0,0,0,0]},{"header":{"parameterUnit":"m.s-1","parameterCategory":2,"la1":30.2991,"la2":30.254,"lo1":-89.0895,"lo2":-89.0444,"dy":0.0017,"dx":0.0017,"nx":28,"ny":28,"refTime":"2024-08-16T09:00:00:Z","depth":"2","parameterNumber":3,"parameterNumberName":"V-component_of_CURRENTS"},"data":[0,0,0,0,0,0,0,0,0,0,0,0,0,0,0,0,0,0,0,0,0,0,0,0,0,0,0,0,0,0,0,0,0,0,0,0,0,0,0,0,0,0,0,0,0,0,0,0,0,0,0,0,0,0,0,0,0,0,-0.0152,-0.0152,0,-0.0115,-0.0114,-0.0113,-0.0034,-0.0033,-0.0032,-0.003,0.0265,0.0271,0.0278,0,0,0,0,0,0,0,0,0,0,0,0,0,-0.0111,-0.0112,-0.0152,-0.0152,-0.0151,-0.0115,-0.0114,-0.0113,-0.0035,-0.0033,-0.0031,-0.003,0.0262,0.027,0.0278,0,0,0,0,0,0,0,0,0,0,0,0,0,-0.0104,-0.0113,-0.0152,-0.011,-0.0106,-0.0115,-0.0114,-0.0113,-0.0035,-0.0033,-0.0031,-0.0029,0.026,0.0269,0.0279,0.0301,0,0,0.031,0.0314,0,0,0,0,0,0,0,0,-0.0105,-0.0105,-0.0116,-0.0113,-0.0109,-0.008,0.0008,0.0037,-0.0035,-0.0059,-0.003,-0.0028,0.017,0.0187,0.0191,0.0315,0.0328,0.0311,0.0317,0.0321,0.0324,0,0,0,0,0,0,0,-0.0105,-0.0106,-0.0134,-0.0116,-0.0112,-0.0079,-0.0075,0.0013,0.0051,-0.0056,-0.0051,-0.0053,0.0175,0.018,0.0199,0.0332,0.031,0.0319,0.0325,0.0329,0.0597,0.0598,0,0,0,0,0,0,-0.0121,-0.0108,-0.0135,-0.0133,-0.0105,-0.0081,-0.0078,-0.0088,0.0045,0.0064,-0.0055,-0.0049,0.0163,0.0187,0.021,0.0334,0.0321,0.033,0.0336,0.0596,0.0598,0.0599,0,0,0,0,0,0,-0.0121,-0.0124,-0.0137,-0.0121,-0.012,-0.0085,-0.0097,-0.0089,-0.0064,0.0043,0.0068,-0.0036,0.0165,0.0196,0.0322,0.0344,0.0335,0.0344,0.0595,0.0597,0.0598,0.0527,0,0,0,0,0,0,-0.012,-0.0125,-0.0133,-0.0123,-0.0122,-0.0144,-0.0099,-0.009,-0.0071,-0.0063,0.0067,0.0095,0.0169,0.0307,0.0332,0.0357,0.0351,0.0593,0.0596,0.0598,0.0528,0.0526,0.0525,0,0,0,0,0,-0.0119,-0.0138,-0.0134,-0.0137,-0.0137,-0.0145,-0.0142,-0.0106,-0.0072,-0.0073,0.0041,0.0092,0.0338,0.0316,0.0345,0.0374,0.0592,0.0595,0.0597,0.0529,0.0527,0.0525,0,0,0,0,0,0,-0.0115,-0.0132,-0.0127,-0.0147,-0.0149,-0.0133,-0.0132,-0.0106,-0.0027,0.0003,0.0114,0.015,0.0261,0.033,0.0302,0.0457,0.047,0.0479,0.0408,0.0407,0.0406,0.0379,0.036,0,0,0,0,0,-0.0126,-0.0149,-0.0153,-0.017,-0.0174,-0.0152,-0.0147,-0.0124,-0.0062,-0.0027,0.0067,0.0182,0.0287,0.0358,0.0447,0.0541,0.0548,0.0577,0.0575,0.0573,0.0572,0.0635,0.0637,0.0607,0.0607,0.0607,0,0,-0.0129,-0.0143,-0.0154,-0.0172,-0.0168,-0.0177,-0.0143,-0.0139,-0.0118,-0.0001,0.008,0.0178,0.0309,0.0409,0.0465,0.0478,0.0567,0.0576,0.0574,0.0574,0.0637,0.064,0.0642,0.0609,0.0609,0.0608,0,0,-0.0154,-0.0163,-0.019,-0.0195,-0.0199,-0.019,-0.0189,-0.0163,-0.0122,-0.004,0.0054,0.0172,0.0318,0.0416,0.0487,0.0535,0.0548,0.0558,0.0544,0.0605,0.0607,0.061,0.053,0.0527,0.0568,0.0567,0.0567,0,-0.0154,-0.0197,-0.0196,-0.0217,-0.0233,-0.0197,-0.0223,-0.0177,-0.0102,-0.0048,-0.0015,0.0221,0.0324,0.0468,0.0481,0.0532,0.0516,0.0538,0.0599,0.0603,0.0606,0.0526,0.0523,0.0564,0.0565,0.0565,0.0565,0,-0.02,-0.0226,-0.0243,-0.0266,-0.0275,-0.0294,-0.0254,-0.0225,-0.0164,-0.0084,0.0061,0.0202,0.0345,0.0393,0.0459,0.0547,0.0502,0.0575,0.0593,0.0604,0.0518,0.0516,0.056,0.0561,0.0562,0.0563,0,0,-0.0232,-0.0271,-0.0279,-0.0306,-0.031,-0.0328,-0.0295,-0.025,-0.0209,-0.0073,-0.0011,0.0204,0.0295,0.038,0.0476,0.054,0.0524,0.0559,0.0563,0.0455,0.0542,0.0575,0.0575,0.0607,0.0609,0.061,0.0436,0,-0.0277,-0.0342,-0.0346,-0.0398,-0.0433,-0.0406,-0.0387,-0.0317,-0.0231,-0.0153,0.0042,0.0159,0.029,0.0342,0.0439,0.051,0.053,0.0557,0.0569,0.0567,0.058,0.0581,0.0607,0.0465,0.0434,0.0433,0.0433,0,-0.0335,-0.0374,-0.0442,-0.0486,-0.0499,-0.0502,-0.0494,-0.0463,-0.0316,-0.0243,-0.0068,0.0064,0.0213,0.0292,0.0444,0.0449,0.0482,0.0527,0.0524,0.059,0.0602,0.0472,0.0462,0.043,0.043,0.043,0.043,0,-0.0396,-0.0451,-0.0517,-0.0531,-0.0553,-0.0561,-0.0557,-0.0459,-0.0426,-0.029,-0.0257,-0.0032,0.0038,0.018,0.0332,0.0366,0.0429,0.0491,0.0533,0.0528,0.0575,0.0576,0.0558,0.0558,0.0559,0.0559,0.056,0,-0.0468,-0.0523,-0.054,-0.0573,-0.0627,-0.061,-0.062,-0.0583,-0.0507,-0.0448,-0.0285,-0.0212,0.0019,0.0117,0.0251,0.0384,0.0379,0.0511,0.052,0.0542,0.0542,0.0566,0.0569,0.0553,0.0554,0.0555,0.0557,0,-0.0543,-0.0559,-0.063,-0.0654,-0.0658,-0.0688,-0.0687,-0.0677,-0.0611,-0.0563,-0.053,-0.0372,-0.023,-0.0047,0.0121,0.0257,0.0387,0.0421,0.0365,0.0376,0.0426,0.0428,0.0416,0.0416,0.0416,0.0417,0.0417,0,-0.0598,-0.0639,-0.0687,-0.0718,-0.0728,-0.0753,-0.0765,-0.0721,-0.0703,-0.0622,-0.0607,-0.0488,-0.0343,-0.0129,0.0116,0.0288,0.0339,0.0384,0.0517,0.0419,0.0427,0.0429,0.043,0.0474,0.0475,0.0476,0.0476,0,-0.0689,-0.0698,-0.0741,-0.0797,-0.0824,-0.0858,-0.0859,-0.0863,-0.0799,-0.0757,-0.0658,-0.0548,-0.0336,-0.0072,0.0136,0.0271,0.0379,0.0402,0.0341,0.0546,0.0475,0.0483,0.0482,0.0482,0.0481,0.0481,0.048,0.048,-0.0744,-0.0788,-0.0823,-0.0879,-0.0912,-0.0928,-0.0936,-0.0917,-0.0883,-0.0775,-0.0676,-0.0478,-0.0285,0.0086,0.0242,0.04,0.0409,0.049,0.0488,0.0485,0.0565,0.0504,0.0519,0.0518,0.0518,0.0518,0.0518,0,-0.0798,-0.0836,-0.0901,-0.095,-0.0984,-0.0984,-0.098,-0.0956,-0.0898,-0.0739,-0.0601,-0.0338,-0.0066,0.0131,0.0392,0.0522,0.0526,0.0546,0.0544,0.0539,0.0535,0.0618,0.0584,0.0584,0.0584,0.0584,0,0,-0.0831,-0.0897,-0.0928,-0.0993,-0.1015,-0.1018,-0.1003,-0.0959,-0.0838,-0.0674,-0.0482,-0.025,-0.0008,0.0184,0.0346,0.0482,0.0475,0.0494,0.0436,0.0413,0.0406,0.0507,0.063,0,0,0,0,0]}],[{"header":{"parameterUnit":"m.s-1","parameterCategory":2,"la1":30.2991,"la2":30.254,"lo1":-89.0895,"lo2":-89.0444,"dy":0.0017,"dx":0.0017,"nx":28,"ny":28,"refTime":"2024-08-16T09:00:00:Z","depth":"4","parameterNumber":2,"parameterNumberName":"U-component_of_CURRENTS"},"data":[0,0,0,0,0,0,0,0,0,0,0,0,0,0,0,0,0,0,0,0,0,0,0,0,0,0,0,0,0,0,0,0,0,0,0,0,0,0,0,0,0,0,0,0,0,0,0,0,0,0,0,0,0,0,0,0,0,0,-0.1142,-0.1143,0,-0.1227,-0.1228,-0.1229,-0.127,-0.127,-0.127,-0.1269,-0.1336,-0.1338,-0.134,0,0,0,0,0,0,0,0,0,0,0,0,0,-0.1094,-0.1094,-0.1142,-0.1143,-0.1144,-0.1226,-0.1228,-0.1229,-0.127,-0.127,-0.127,-0.1269,-0.1335,-0.1338,-0.134,0,0,0,0,0,0,0,0,0,0,0,0,0,-0.1143,-0.1094,-0.1142,-0.1172,-0.1175,-0.1226,-0.1228,-0.123,-0.127,-0.127,-0.1269,-0.1269,-0.1335,-0.1338,-0.1341,-0.1369,0,0,-0.135,-0.1351,0,0,0,0,0,0,0,0,-0.114,-0.1145,-0.1166,-0.117,-0.1173,-0.1235,-0.1235,-0.1274,-0.1271,-0.1237,-0.1269,-0.1269,-0.1299,-0.1305,-0.1326,-0.1372,-0.1375,-0.135,-0.1352,-0.1354,-0.1354,0,0,0,0,0,0,0,-0.1136,-0.1142,-0.1179,-0.1167,-0.1171,-0.1207,-0.1213,-0.1244,-0.1272,-0.124,-0.1243,-0.1247,-0.1301,-0.1323,-0.1328,-0.1376,-0.135,-0.1353,-0.1355,-0.1356,-0.1496,-0.1498,0,0,0,0,0,0,-0.1116,-0.1138,-0.1176,-0.1181,-0.1152,-0.1208,-0.1215,-0.1218,-0.1272,-0.1279,-0.1248,-0.1249,-0.1318,-0.1325,-0.1331,-0.1397,-0.1353,-0.1356,-0.1358,-0.1494,-0.1496,-0.1499,0,0,0,0,0,0,-0.1115,-0.1119,-0.1172,-0.1159,-0.1168,-0.1208,-0.1212,-0.122,-0.1255,-0.1277,-0.1284,-0.1275,-0.1318,-0.1326,-0.1379,-0.1399,-0.1358,-0.1361,-0.1492,-0.1495,-0.1498,-0.1511,0,0,0,0,0,0,-0.1113,-0.1118,-0.1127,-0.1158,-0.1168,-0.1203,-0.1212,-0.1222,-0.1256,-0.1259,-0.1303,-0.1308,-0.1319,-0.1374,-0.1382,-0.1402,-0.1363,-0.149,-0.1493,-0.1497,-0.1508,-0.1514,-0.1518,0,0,0,0,0,-0.1111,-0.1115,-0.1127,-0.1132,-0.1174,-0.1203,-0.1213,-0.1242,-0.1258,-0.1273,-0.1315,-0.1307,-0.1402,-0.1379,-0.1387,-0.1408,-0.1488,-0.1492,-0.1496,-0.1505,-0.1512,-0.1518,0,0,0,0,0,0,-0.11,-0.112,-0.1134,-0.1145,-0.1173,-0.1209,-0.1227,-0.1252,-0.13,-0.1309,-0.1334,-0.1343,-0.1394,-0.1408,-0.1382,-0.1462,-0.1443,-0.1449,-0.1447,-0.1454,-0.1459,-0.1446,-0.1366,0,0,0,0,0,-0.11,-0.111,-0.1136,-0.1149,-0.116,-0.12,-0.1222,-0.1244,-0.1282,-0.1303,-0.1337,-0.1378,-0.1418,-0.144,-0.1473,-0.152,-0.1515,-0.1541,-0.1546,-0.155,-0.1548,-0.1548,-0.1552,-0.1512,-0.1512,-0.1512,0,0,-0.1105,-0.1113,-0.1124,-0.1148,-0.1173,-0.1202,-0.1213,-0.1245,-0.1281,-0.1303,-0.1366,-0.1397,-0.1436,-0.1487,-0.1511,-0.15,-0.1566,-0.1555,-0.1558,-0.1554,-0.1552,-0.1556,-0.1559,-0.1515,-0.1515,-0.1514,0,0,-0.1101,-0.112,-0.1123,-0.1148,-0.1179,-0.1211,-0.1222,-0.1268,-0.1298,-0.1362,-0.1387,-0.1432,-0.15,-0.1525,-0.1549,-0.1606,-0.1593,-0.1623,-0.1638,-0.1638,-0.164,-0.1642,-0.1658,-0.1661,-0.1625,-0.1625,-0.1625,0,-0.1106,-0.1113,-0.1132,-0.1143,-0.1171,-0.1215,-0.124,-0.1281,-0.1345,-0.1371,-0.1383,-0.1484,-0.1516,-0.1569,-0.1598,-0.1615,-0.1618,-0.1606,-0.1641,-0.1643,-0.1644,-0.166,-0.1663,-0.1626,-0.1626,-0.1626,-0.1626,0,-0.1099,-0.1121,-0.1126,-0.1159,-0.1194,-0.1223,-0.1275,-0.1319,-0.1369,-0.1405,-0.147,-0.1517,-0.1571,-0.1594,-0.1621,-0.1657,-0.1658,-0.1643,-0.1614,-0.1648,-0.1664,-0.1667,-0.1628,-0.1628,-0.1627,-0.1627,0,0,-0.1073,-0.1114,-0.1119,-0.1143,-0.1209,-0.1233,-0.1298,-0.1359,-0.1396,-0.1458,-0.1501,-0.1581,-0.1598,-0.1626,-0.1654,-0.1664,-0.1694,-0.1666,-0.1666,-0.1665,-0.1707,-0.1565,-0.1555,-0.1679,-0.1679,-0.168,-0.1719,0,-0.1068,-0.1084,-0.112,-0.1172,-0.1192,-0.1262,-0.1319,-0.1382,-0.1437,-0.1488,-0.1534,-0.1584,-0.1612,-0.1638,-0.1657,-0.1691,-0.1701,-0.1686,-0.169,-0.1691,-0.1544,-0.1552,-0.1681,-0.1721,-0.1722,-0.1722,-0.1722,0,-0.1045,-0.1064,-0.1098,-0.1175,-0.1193,-0.1241,-0.1331,-0.1387,-0.1464,-0.1504,-0.1552,-0.1585,-0.1644,-0.1641,-0.17,-0.169,-0.1703,-0.1714,-0.1715,-0.1574,-0.1552,-0.1679,-0.1727,-0.1727,-0.1727,-0.1726,-0.1726,0,-0.0994,-0.1054,-0.1083,-0.1109,-0.1199,-0.1241,-0.1303,-0.1387,-0.1431,-0.1505,-0.1539,-0.1596,-0.1643,-0.1659,-0.1706,-0.1706,-0.1743,-0.174,-0.1621,-0.1613,-0.1724,-0.1721,-0.1749,-0.1749,-0.1749,-0.1749,-0.1749,0,-0.0962,-0.0987,-0.1062,-0.1078,-0.1131,-0.121,-0.1271,-0.1337,-0.1417,-0.1469,-0.1539,-0.1576,-0.1648,-0.1681,-0.1702,-0.1668,-0.174,-0.1616,-0.1601,-0.1734,-0.1732,-0.1727,-0.1724,-0.1751,-0.175,-0.175,-0.175,0,-0.089,-0.0938,-0.0979,-0.1073,-0.1102,-0.1141,-0.1247,-0.1283,-0.1378,-0.1445,-0.147,-0.1576,-0.1617,-0.1657,-0.1696,-0.1655,-0.1636,-0.1601,-0.1754,-0.1749,-0.1516,-0.1514,-0.1473,-0.1468,-0.1464,-0.146,-0.1457,0,-0.085,-0.0854,-0.0954,-0.098,-0.1024,-0.109,-0.1133,-0.1244,-0.1288,-0.1437,-0.146,-0.1531,-0.1586,-0.1537,-0.1583,-0.1566,-0.1545,-0.1531,-0.1506,-0.1492,-0.1483,-0.1487,-0.1491,-0.145,-0.1449,-0.1448,-0.1447,0,-0.0768,-0.081,-0.0848,-0.0896,-0.0945,-0.1001,-0.1077,-0.1103,-0.1244,-0.1337,-0.1404,-0.1417,-0.1453,-0.1465,-0.1444,-0.1439,-0.1534,-0.1487,-0.1496,-0.1472,-0.1465,-0.146,-0.1469,-0.1433,-0.1435,-0.1436,-0.1437,0,-0.0712,-0.0715,-0.0761,-0.0802,-0.086,-0.09,-0.096,-0.1026,-0.1086,-0.1263,-0.1283,-0.1369,-0.1458,-0.1399,-0.1392,-0.1351,-0.1332,-0.1292,-0.1311,-0.1328,-0.1252,-0.122,-0.1088,0,0,0,0,0,-0.0651,-0.063,-0.0656,-0.0701,-0.0764,-0.0799,-0.0913,-0.0984,-0.1126,-0.1136,-0.1208,-0.1235,-0.1233,-0.1271,-0.1194,-0.1298,-0.1319,-0.12,-0.128,-0.1352,-0.1368,-0.1288,0,0,0,0,0,0,-0.0602,-0.0605,-0.0613,-0.0605,-0.0624,-0.0679,-0.0756,-0.0864,-0.0883,-0.1033,-0.1035,-0.1132,-0.1137,-0.1243,-0.1158,-0.1163,-0.1182,-0.1245,-0.1241,-0.1342,-0.1357,-0.1371,-0.1294,0,0,0,0,0]},{"header":{"parameterUnit":"m.s-1","parameterCategory":2,"la1":30.2991,"la2":30.254,"lo1":-89.0895,"lo2":-89.0444,"dy":0.0017,"dx":0.0017,"nx":28,"ny":28,"refTime":"2024-08-16T09:00:00:Z","depth":"4","parameterNumber":3,"parameterNumberName":"V-component_of_CURRENTS"},"data":[0,0,0,0,0,0,0,0,0,0,0,0,0,0,0,0,0,0,0,0,0,0,0,0,0,0,0,0,0,0,0,0,0,0,0,0,0,0,0,0,0,0,0,0,0,0,0,0,0,0,0,0,0,0,0,0,0,0,-0.016,-0.016,0,-0.0187,-0.0187,-0.0187,-0.0159,-0.0158,-0.0157,-0.0156,-0.0074,-0.0072,-0.0071,0,0,0,0,0,0,0,0,0,0,0,0,0,-0.0098,-0.0099,-0.016,-0.016,-0.0161,-0.0187,-0.0187,-0.0187,-0.0159,-0.0158,-0.0157,-0.0156,-0.0074,-0.0073,-0.0071,0,0,0,0,0,0,0,0,0,0,0,0,0,-0.0123,-0.0099,-0.016,-0.0151,-0.0151,-0.0187,-0.0187,-0.0187,-0.0159,-0.0158,-0.0157,-0.0155,-0.0075,-0.0073,-0.0071,-0.0087,0,0,-0.0065,-0.0064,0,0,0,0,0,0,0,0,-0.0122,-0.0125,-0.0152,-0.0152,-0.0152,-0.0169,-0.0135,-0.0149,-0.016,-0.0155,-0.0156,-0.0155,-0.0098,-0.0094,-0.0101,-0.0083,-0.0079,-0.0065,-0.0063,-0.0063,-0.0062,0,0,0,0,0,0,0,-0.012,-0.0124,-0.0169,-0.0153,-0.0152,-0.0151,-0.0152,-0.0138,-0.013,-0.0155,-0.0153,-0.0159,-0.0096,-0.0103,-0.0099,-0.0078,-0.0065,-0.0063,-0.0062,-0.0061,-0.0072,-0.0073,0,0,0,0,0,0,-0.0121,-0.0123,-0.0168,-0.017,-0.0135,-0.0153,-0.0155,-0.0164,-0.0133,-0.0128,-0.016,-0.0158,-0.0107,-0.0101,-0.0096,-0.0115,-0.0063,-0.0061,-0.006,-0.007,-0.0072,-0.0074,0,0,0,0,0,0,-0.012,-0.0125,-0.0167,-0.0148,-0.0153,-0.0156,-0.0166,-0.0165,-0.0167,-0.0139,-0.0131,-0.0163,-0.0106,-0.0098,-0.0087,-0.0111,-0.006,-0.0058,-0.0069,-0.0071,-0.0073,-0.0152,0,0,0,0,0,0,-0.0118,-0.0125,-0.0132,-0.0148,-0.0154,-0.0192,-0.0167,-0.0167,-0.0174,-0.0171,-0.0138,-0.013,-0.0104,-0.0091,-0.0085,-0.0108,-0.0056,-0.0067,-0.007,-0.0072,-0.0148,-0.0157,-0.0165,0,0,0,0,0,-0.0116,-0.0133,-0.0132,-0.0137,-0.0164,-0.0193,-0.0197,-0.0192,-0.0176,-0.0186,-0.0164,-0.013,-0.0105,-0.009,-0.0084,-0.0106,-0.0066,-0.0069,-0.0072,-0.0144,-0.0155,-0.0164,0,0,0,0,0,0,-0.0107,-0.0133,-0.0131,-0.0155,-0.0174,-0.0189,-0.0202,-0.0197,-0.0191,-0.0182,-0.0145,-0.0136,-0.0141,-0.0114,-0.0099,-0.0119,-0.0082,-0.0084,-0.0138,-0.0148,-0.0157,-0.0155,-0.0055,0,0,0,0,0,-0.0111,-0.0132,-0.0153,-0.0172,-0.0185,-0.0193,-0.0204,-0.0203,-0.0202,-0.0198,-0.0176,-0.0157,-0.0154,-0.0141,-0.0133,-0.0137,-0.0086,-0.0149,-0.0158,-0.0165,-0.0161,-0.014,-0.0145,-0.0085,-0.0085,-0.0085,0,0,-0.0112,-0.0131,-0.014,-0.0172,-0.0187,-0.0218,-0.0196,-0.0219,-0.0238,-0.0189,-0.0202,-0.0186,-0.0163,-0.0176,-0.0175,-0.0151,-0.0148,-0.0169,-0.0176,-0.0167,-0.0144,-0.0149,-0.0154,-0.0087,-0.0087,-0.0086,0,0,-0.0137,-0.0144,-0.0175,-0.0197,-0.0227,-0.0235,-0.0243,-0.0261,-0.0261,-0.0276,-0.0252,-0.0251,-0.0236,-0.0232,-0.0226,-0.0275,-0.02,-0.0272,-0.0305,-0.0285,-0.0289,-0.0293,-0.0198,-0.0192,-0.027,-0.027,-0.027,0,-0.0136,-0.0181,-0.0188,-0.0228,-0.0251,-0.0245,-0.0285,-0.0293,-0.0302,-0.0306,-0.0287,-0.0284,-0.0268,-0.0282,-0.0303,-0.0294,-0.024,-0.0268,-0.0295,-0.0298,-0.0299,-0.0202,-0.0195,-0.0274,-0.0274,-0.0273,-0.0273,0,-0.019,-0.0226,-0.0249,-0.0297,-0.0318,-0.0352,-0.0367,-0.0378,-0.0373,-0.0377,-0.0388,-0.0368,-0.0361,-0.0366,-0.0348,-0.0364,-0.0303,-0.0313,-0.0266,-0.031,-0.0204,-0.0195,-0.028,-0.0279,-0.0277,-0.0276,0,0,-0.0191,-0.0271,-0.0281,-0.0317,-0.0358,-0.0383,-0.0414,-0.0445,-0.0455,-0.0457,-0.0468,-0.0478,-0.0454,-0.0446,-0.0424,-0.0407,-0.0371,-0.0366,-0.0363,-0.0264,-0.0263,-0.0238,-0.0224,-0.0385,-0.0385,-0.0385,-0.0168,0,-0.0234,-0.0323,-0.0347,-0.042,-0.0466,-0.0471,-0.0499,-0.0517,-0.0515,-0.0521,-0.0505,-0.0507,-0.0488,-0.0479,-0.0466,-0.04,-0.0357,-0.0424,-0.024,-0.0233,-0.0203,-0.0219,-0.0385,-0.0161,-0.0158,-0.0157,-0.0156,0,-0.0283,-0.0338,-0.0424,-0.0489,-0.0507,-0.0542,-0.0573,-0.0595,-0.0596,-0.059,-0.0583,-0.0558,-0.0532,-0.0516,-0.0405,-0.0444,-0.036,-0.03,-0.029,-0.0236,-0.0195,-0.0117,-0.0138,-0.0139,-0.0141,-0.0142,-0.0143,0,-0.0295,-0.0389,-0.0459,-0.0486,-0.0555,-0.0583,-0.0606,-0.0619,-0.0632,-0.0626,-0.0617,-0.0585,-0.0545,-0.0472,-0.0348,-0.0373,-0.0199,-0.0219,-0.0101,-0.0094,-0.0142,-0.0141,-0.014,-0.014,-0.014,-0.0141,-0.0142,0,-0.0336,-0.0391,-0.0474,-0.0515,-0.0582,-0.061,-0.0654,-0.0666,-0.067,-0.0674,-0.065,-0.0617,-0.0537,-0.0432,-0.0335,-0.0171,-0.0181,-0.0094,-0.0054,-0.0174,-0.018,-0.0132,-0.0134,-0.0133,-0.0135,-0.0136,-0.0138,0,-0.0346,-0.0403,-0.0487,-0.0571,-0.0598,-0.0642,-0.0693,-0.0711,-0.0705,-0.0701,-0.0697,-0.0622,-0.048,-0.0363,-0.0202,-0.0134,0.0002,0.0066,-0.0006,0.0025,0.0105,0.0096,0.0219,0.0221,0.0223,0.0225,0.0226,0,-0.0364,-0.0413,-0.0523,-0.0572,-0.0617,-0.0679,-0.0714,-0.0733,-0.0739,-0.069,-0.0678,-0.0552,-0.0485,-0.0198,-0.0104,0.011,0.0115,0.0208,0.0085,0.0107,0.0134,0.0122,0.0111,0.0229,0.0229,0.023,0.023,0,-0.0391,-0.0431,-0.0498,-0.0596,-0.0658,-0.0717,-0.076,-0.0764,-0.0757,-0.0751,-0.0628,-0.0505,-0.0329,-0.0165,0.001,0.0142,0.0142,0.0228,0.0223,0.0108,0.0121,0.0143,0.013,0.0237,0.0236,0.0236,0.0235,0,-0.0402,-0.0448,-0.0532,-0.0614,-0.069,-0.0734,-0.0758,-0.074,-0.0735,-0.0673,-0.0618,-0.0452,-0.0355,-0.0141,0.0012,0.0147,0.0154,0.017,0.0169,0.0163,0.0045,0.0046,0.0184,0,0,0,0,0,-0.0409,-0.0459,-0.0541,-0.0632,-0.0702,-0.0741,-0.0779,-0.0786,-0.0769,-0.0676,-0.0646,-0.048,-0.0245,-0.0143,0.0,0.0012,0.0152,0.018,0.0164,0.0274,0.0267,0.0134,0,0,0,0,0,0,-0.0418,-0.049,-0.0536,-0.0623,-0.0679,-0.0746,-0.0769,-0.0761,-0.0699,-0.0657,-0.0522,-0.0454,-0.0222,-0.0318,0.0004,0.0042,0.0048,0.0289,0.0292,0.0279,0.0272,0.0265,0.0127,0,0,0,0,0]}]]